CW4610 Weather Reports


Display with metric or nautical units.
time (UTC)temp
F
wind
direction
speed
MPH
gust
MPH
rain 1hr
in
rain 24hr
in
rain mn
in
humidity
%
barometer
mb
20260510185019 65 180 8.0 14.0 0.00 0.00 0.00 60 1017.1
20260510184115 65 180 8.0 14.0 0.00 0.00 0.00 58 1017.0
20260510183019 66 180 6.0 11.0 0.00 0.00 0.00 58 1016.9
20260510182039 66 180 8.0 16.0 0.00 0.00 0.00 58 1016.9
20260510181019 65 180 6.0 13.0 0.00 0.00 0.00 60 1016.9
20260510180019 65 180 7.0 14.0 0.00 0.00 0.00 61 1016.8
20260510175040 64 180 7.0 11.0 0.00 0.00 0.00 63 1016.8
20260510174041 63 203 4.0 8.0 0.00 0.00 0.00 64 1016.7
20260510173020 63 180 5.0 9.0 0.00 0.00 0.00 66 1016.9
20260510172018 62 180 7.0 12.0 0.00 0.00 0.00 69 1016.9
20260510171038 61 180 7.0 11.0 0.00 0.00 0.00 70 1016.8
20260510170031 61 180 6.0 12.0 0.00 0.00 0.00 70 1016.7
20260510165020 60 180 5.0 9.0 0.00 0.00 0.00 71 1016.7
20260510164020 59 180 6.0 10.0 0.00 0.00 0.00 74 1016.8
20260510163018 58 180 3.0 6.0 0.00 0.00 0.00 75 1016.9
20260510162038 58 158 1.0 3.0 0.00 0.00 0.00 75 1016.9
20260510161019 57 248 1.0 3.0 0.00 0.00 0.00 77 1016.7
20260510160018 57 23 1.0 3.0 0.00 0.00 0.00 76 1016.7
20260510155019 57 68 2.0 4.0 0.00 0.00 0.00 77 1016.7
20260510154018 56 90 2.0 6.0 0.00 0.00 0.00 79 1016.8
20260510153018 55 90 2.0 4.0 0.00 0.00 0.00 82 1016.8
20260510152019 54 225 3.0 7.0 0.00 0.00 0.00 84 1016.9
20260510151019 53 68 3.0 5.0 0.00 0.00 0.00 85 1016.6
20260510150019 53 0 2.0 5.0 0.00 0.00 0.00 86 1016.6
20260510145019 52 90 1.0 2.0 0.00 0.00 0.00 87 1016.6
20260510144018 51 45 1.0 3.0 0.00 0.00 0.00 89 1016.5
20260510143028 51 0 0.0 2.0 0.00 0.00 0.00 90 1016.2
20260510142018 50 23 2.0 4.0 0.00 0.00 0.00 90 1016.2
20260510141018 50 23 3.0 4.0 0.00 0.00 0.00 90 1016.4
20260510140018 49 23 3.0 4.0 0.00 0.00 0.00 90 1016.3
20260510135018 49 45 2.0 4.0 0.00 0.00 0.00 90 1016.3
20260510134019 49 23 3.0 5.0 0.00 0.00 0.00 90 1016.3
20260510133019 49 45 3.0 4.0 0.00 0.00 0.00 90 1016.5
20260510132018 49 23 2.0 3.0 0.00 0.00 0.00 90 1016.5
20260510131018 49 45 3.0 4.0 0.00 0.00 0.00 90 1016.5
20260510130019 49 23 3.0 4.0 0.00 0.00 0.00 90 1016.2
20260510125037 49 23 2.0 6.0 0.00 0.00 0.00 89 1016.1
20260510124039 50 23 4.0 6.0 0.00 0.00 0.00 88 1016.1
20260510123039 50 45 3.0 5.0 0.00 0.00 0.00 87 1016.1
20260510122018 51 23 2.0 5.0 0.00 0.00 0.00 88 1016.1
20260510121037 51 158 4.0 9.0 0.00 0.00 0.00 89 1016.1
20260510120038 51 225 3.0 8.0 0.00 0.00 0.00 87 1015.8
20260510115018 51 113 1.0 3.0 0.00 0.00 0.00 87 1015.8
20260510114019 51 68 3.0 6.0 0.00 0.00 0.00 87 1016.3
20260510113021 51 113 3.0 5.0 0.00 0.00 0.00 88 1016.3
20260510112020 51 68 2.0 5.0 0.00 0.00 0.00 87 1016.3
20260510111020 51 68 2.0 5.0 0.00 0.00 0.00 87 1016.1
20260510110020 51 68 2.0 4.0 0.00 0.00 0.00 86 1016.0
20260510105040 52 45 1.0 3.0 0.00 0.00 0.00 86 1015.9
20260510104020 52 45 1.0 3.0 0.00 0.00 0.00 85 1015.8
20260510103052 52 45 2.0 4.0 0.00 0.00 0.00 85 1015.9
20260510102019 52 135 2.0 4.0 0.00 0.00 0.00 85 1015.9
20260510101140 52 68 3.0 6.0 0.00 0.00 0.00 85 1015.7
20260510100020 52 90 4.0 6.0 0.00 0.00 0.00 85 1015.9
20260510095020 52 23 1.0 2.0 0.00 0.00 0.00 85 1015.9
20260510094019 53 90 0.0 2.0 0.00 0.00 0.00 85 1015.6
20260510093021 53 68 2.0 3.0 0.00 0.00 0.00 84 1015.7
20260510092019 53 135 2.0 4.0 0.00 0.00 0.00 85 1015.7
20260510091020 53 180 3.0 4.0 0.00 0.00 0.00 85 1016.0
20260510090019 53 180 4.0 7.0 0.00 0.00 0.00 84 1016.1
20260510085020 53 45 2.0 4.0 0.00 0.00 0.00 83 1016.1
20260510084020 53 68 2.0 5.0 0.00 0.00 0.00 83 1016.1
20260510083039 54 180 1.0 3.0 0.00 0.00 0.00 82 1016.2
20260510082039 54 90 3.0 6.0 0.00 0.00 0.00 82 1016.2
20260510081019 54 113 3.0 7.0 0.00 0.00 0.00 81 1016.2
20260510080025 54 158 2.0 5.0 0.00 0.00 0.00 82 1016.1
20260510075040 54 180 2.0 4.0 0.00 0.00 0.00 81 1016.1
20260510074039 54 180 4.0 7.0 0.00 0.00 0.00 81 1015.9
20260510073039 54 180 3.0 6.0 0.00 0.00 0.00 82 1015.6
20260510072039 54 23 1.0 2.0 0.00 0.00 0.00 81 1015.6
20260510071019 54 45 1.0 3.0 0.00 0.00 0.00 81 1015.6
20260510070021 54 0 1.0 2.0 0.00 0.00 0.00 81 1015.5
20260510065020 54 0 2.0 3.0 0.00 0.00 0.00 81 1015.5
20260510064019 54 338 3.0 5.0 0.00 0.00 0.00 81 1015.5
20260510063019 55 293 2.0 4.0 0.00 0.00 0.00 81 1015.7
20260510062019 55 0 3.0 5.0 0.00 0.00 0.00 80 1015.7
20260510061036 55 0 2.0 3.0 0.00 0.00 0.00 80 1015.9
20260510060020 55 0 2.0 3.0 0.00 0.00 0.00 79 1015.8
20260510055018 56 203 0.0 1.0 0.00 0.00 0.00 78 1015.7
20260510054018 56 113 1.0 2.0 0.00 0.00 0.00 78 1015.7
20260510053018 56 90 2.0 3.0 0.00 0.00 0.00 77 1015.7
20260510052019 56 68 2.0 4.0 0.00 0.00 0.00 77 1015.7
20260510051018 57 68 1.0 2.0 0.00 0.00 0.00 76 1015.6
20260510050021 57 45 1.0 4.0 0.00 0.00 0.00 75 1015.5
20260510045018 58 90 2.0 6.0 0.00 0.00 0.00 74 1015.5
20260510044019 58 68 2.0 8.0 0.00 0.00 0.00 73 1015.5
20260510043020 58 180 3.0 7.0 0.00 0.00 0.00 72 1015.3
20260510042018 59 68 3.0 7.0 0.00 0.00 0.00 71 1015.3
20260510041018 60 68 2.0 4.0 0.00 0.00 0.00 70 1015.2
20260510040019 60 45 2.0 3.0 0.00 0.00 0.00 68 1015.1
20260510035038 61 135 4.0 8.0 0.00 0.00 0.00 68 1015.1
20260510034030 61 248 2.0 4.0 0.00 0.00 0.00 67 1015.0
20260510033020 61 158 2.0 4.0 0.00 0.00 0.00 67 1015.0
20260510032026 62 180 6.0 11.0 0.00 0.00 0.00 66 1015.0
20260510031023 62 180 10.0 17.0 0.00 0.00 0.00 66 1015.0
20260510030021 63 180 10.0 16.0 0.00 0.00 0.00 65 1015.0
20260510025020 63 180 9.0 15.0 0.00 0.00 0.00 64 1015.0
20260510024021 64 180 12.0 19.0 0.00 0.00 0.00 62 1015.0
20260510023100 65 180 9.0 17.0 0.00 0.00 0.00 61 1015.0
20260510022020 66 180 12.0 17.0 0.00 0.00 0.00 60 1015.0
20260510021020 67 180 11.0 19.0 0.00 0.00 0.00 59 1015.1
20260510020019 68 180 7.0 15.0 0.00 0.00 0.00 58 1015.0
20260510015022 68 180 7.0 12.0 0.00 0.00 0.00 57 1015.0
20260510014020 69 180 7.0 12.0 0.00 0.00 0.00 55 1015.0
20260510013040 70 180 7.0 12.0 0.00 0.00 0.00 54 1015.1
20260510012044 71 203 6.0 9.0 0.00 0.00 0.00 53 1015.1
20260510011020 71 180 7.0 12.0 0.00 0.00 0.00 52 1015.1
20260510010031 71 180 6.0 9.0 0.00 0.00 0.00 51 1015.2
20260510005019 72 203 6.0 9.0 0.00 0.00 0.00 50 1015.2
20260510004020 72 225 5.0 9.0 0.00 0.00 0.00 50 1015.3
20260510003040 72 180 4.0 6.0 0.00 0.00 0.00 49 1015.4
20260510002019 73 203 6.0 10.0 0.00 0.00 0.00 50 1015.5
20260510001020 73 180 5.0 9.0 0.00 0.00 0.00 48 1015.5
20260510000019 73 180 6.0 11.0 0.00 0.00 0.00 48 1015.6
20260509235039 73 225 3.0 7.0 0.00 0.00 0.00 48 1015.6
20260509234039 73 180 3.0 6.0 0.00 0.00 0.00 45 1015.9
20260509233020 74 225 2.0 7.0 0.00 0.00 0.00 46 1016.0
20260509232019 74 225 3.0 7.0 0.00 0.00 0.00 45 1016.1
20260509231020 75 315 3.0 6.0 0.00 0.00 0.00 45 1016.5
20260509230038 75 225 3.0 6.0 0.00 0.00 0.00 42 1016.6
20260509225019 76 225 3.0 8.0 0.00 0.00 0.00 42 1016.7
20260509224021 76 225 3.0 7.0 0.00 0.00 0.00 42 1017.0
20260509223025 75 225 3.0 7.0 0.00 0.00 0.00 42 1017.1
20260509222019 75 225 5.0 9.0 0.00 0.00 0.00 42 1017.2
20260509221019 75 225 4.0 7.0 0.00 0.00 0.00 45 1017.5
20260509220021 75 270 3.0 5.0 0.00 0.00 0.00 44 1017.7
20260509215019 75 225 4.0 7.0 0.00 0.00 0.00 44 1017.7
20260509214031 75 225 4.0 6.0 0.00 0.00 0.00 44 1018.1
20260509213039 74 225 4.0 7.0 0.00 0.00 0.00 45 1018.2
20260509212039 74 225 5.0 8.0 0.00 0.00 0.00 45 1018.2
20260509211021 74 225 5.0 8.0 0.00 0.00 0.00 48 1018.5
20260509210020 74 225 5.0 9.0 0.00 0.00 0.00 48 1018.6
20260509205019 73 248 2.0 5.0 0.00 0.00 0.00 50 1018.7
20260509204019 72 293 4.0 7.0 0.00 0.00 0.00 50 1018.9
20260509203020 72 293 3.0 6.0 0.00 0.00 0.00 50 1019.1
20260509202019 72 225 4.0 9.0 0.00 0.00 0.00 51 1019.2
20260509201019 72 225 4.0 7.0 0.00 0.00 0.00 51 1019.4
20260509200046 71 315 3.0 6.0 0.00 0.00 0.00 53 1019.7
20260509195019 70 225 2.0 5.0 0.00 0.00 0.00 53 1019.7
20260509194019 69 225 4.0 6.0 0.00 0.00 0.00 54 1019.7
20260509193019 68 180 3.0 6.0 0.00 0.00 0.00 56 1019.8
20260509192018 66 158 3.0 5.0 0.00 0.00 0.00 61 1019.8
20260509191040 65 23 2.0 5.0 0.00 0.00 0.00 63 1020.0
20260509190019 65 45 2.0 5.0 0.00 0.00 0.00 64 1020.2